PEGASUS DEB, 24602

Orbit data source: Space-Track

PEGASUS DEB, 24602 is space debris in LEO originally from a launch on Thu, 19 May 1994 UTC launched from the Air Force Western Test Range (AFWTR). Debris objects in space refer to the collection of defunct objects orbiting the Earth. Examples of debris include non-operational satellites, rocket bodies, and fragments generated from explosions, collisions, or faulty payload assembly.

Loading next visibility...
Identifier
24602, 1994-029ZE
Orbit
LEO
Country
Flag of USUS
Related business
Manufacturer
Unknown
Mission
Spacecraft
Bus & Motor
Unknown
Mass
Unknown
Launch date (UTC)
1994-05-19 (32 years ago)
Launch vehicle
Unknown
Launch site
Air Force Western Test Range (AFWTR)
Object type
Payload
Rocket body
Debris
Shape & HBR
Unknown shape, 0.1 m
Radar Cross Section
Small (<0.1 m²)

Expand to show TLE details & history
Last TLE update: 12 hours ago

TLE from 12 hours ago
0 PEGASUS DEB
1 24602U 94029ZE  26119.80644793  .00003694  00000-0  11805-2 0  9997
2 24602  81.5251 233.6909 0729315 131.7180 234.8744 13.45058079438962
Epoch: 2026-04-29T19:21Z
TLE epoch observation values (Epoch: 2026-04-29T19:21:17.101Z)
Latitude
-0.00001°
Longitude
85.60752°
Altitude
1,431.761 km
Speed
6.982 km/s
True Right ascension
15h 34m 45s
True Declination
0° 00' 00"
Sunlit
Object was in full shadow at epoch
Visualization orbit readout
Latitude
Unknown
Longitude
Unknown
Altitude
Unknown
Speed
Unknown
Apparent Right ascension
Unknown
Apparent Declination
Unknown
Sunlit
N/A
Visualization observer readout
Local Sidereal Time
14:30:52
Azimuth
Unknown
Elevation
Unknown
Doppler factor
Unknown
Orbital elements
Apogee altitude
1,632.22 km
Perigee altitude
543.227 km
Semi-major axis
7,465.86 km
Eccentricity
0.07293
Inclination
81.5251°
RAAN
233.6909°
Arg. of periapsis
131.718°
True anomaly
228.39404°
Mean anomaly
234.8744°
Eccentric anomaly
231.59962°
Mean motion
3.36452 °/min
Orbital period
107 mins
BSTAR
0.0011805
Loading maneuver chart data...
Computing Atmospheric mass density...
Loading historical data...
Loading historical data...
Loading historical data...
Loading historical data...
Loading historical data...
Loading historical data...
Loading historical data...

Documentation

Showing up to 5 results
|